"datetime","# probes","# resolvers","can_ipv6","can_ipv6_prbs","can_tcp","can_tcp_prbs","can_tcp6","can_tcp6_prbs","does_ecs","does_ecs_prbs","does_flagday","does_flagday_prbs","does_rov4","does_rov4_prbs","does_rov6","does_rov6_prbs","does_qnamemin","doesnt_qnamemin","does_qnamemin_prbs","doesnt_qnamemin_prbs","does_nxdomain","doesnt_nxdomain","does_nxdomain_prbs","doesnt_nxdomain_prbs","has_ta_19036","hasnt_ta_19036","has_ta_19036_prbs","hasnt_ta_19036_prbs","has_ta_20326","hasnt_ta_20326","has_ta_20326_prbs","hasnt_ta_20326_prbs","can_rsamd5","cannot_rsamd5","broken_rsamd5","can_rsamd5_prbs","cannot_rsamd5_prbs","broken_rsamd5_prbs","can_dsa","cannot_dsa","broken_dsa","can_dsa_prbs","cannot_dsa_prbs","broken_dsa_prbs","can_rsasha1","cannot_rsasha1","broken_rsasha1","can_rsasha1_prbs","cannot_rsasha1_prbs","broken_rsasha1_prbs","can_dsansec3","cannot_dsansec3","broken_dsansec3","can_dsansec3_prbs","cannot_dsansec3_prbs","broken_dsansec3_prbs","can_rsansec3","cannot_rsansec3","broken_rsansec3","can_rsansec3_prbs","cannot_rsansec3_prbs","broken_rsansec3_prbs","can_rsasha256","cannot_rsasha256","broken_rsasha256","can_rsasha256_prbs","cannot_rsasha256_prbs","broken_rsasha256_prbs","can_rsasha512","cannot_rsasha512","broken_rsasha512","can_rsasha512_prbs","cannot_rsasha512_prbs","broken_rsasha512_prbs","can_eccgost","cannot_eccgost","broken_eccgost","can_eccgost_prbs","cannot_eccgost_prbs","broken_eccgost_prbs","can_ecdsa256","cannot_ecdsa256","broken_ecdsa256","can_ecdsa256_prbs","cannot_ecdsa256_prbs","broken_ecdsa256_prbs","can_ecdsa384","cannot_ecdsa384","broken_ecdsa384","can_ecdsa384_prbs","cannot_ecdsa384_prbs","broken_ecdsa384_prbs","can_ed25519","cannot_ed25519","broken_ed25519","can_ed25519_prbs","cannot_ed25519_prbs","broken_ed25519_prbs","can_ed448","cannot_ed448","broken_ed448","can_ed448_prbs","cannot_ed448_prbs","broken_ed448_prbs","can_gost","cannot_gost","broken_gost","can_gost_prbs","cannot_gost_prbs","broken_gost_prbs","can_sha384","cannot_sha384","broken_sha384","can_sha384_prbs","cannot_sha384_prbs","broken_sha384_prbs","is_internal","is_forwarding","is_external","is_internal_prbs","is_forwarding_prbs","is_external_prbs"
2017-06-20T23:59:59Z,198,304,107,87,302,197,100,81,29,40,0,0,0,0,0,0,2,301,1,196,1,299,1,195,0,0,0,0,0,0,0,0,11,293,0,10,193,18,42,262,0,33,172,0,42,262,0,48,170,0,42,262,0,33,172,0,42,262,0,47,170,0,42,262,0,47,170,0,42,262,0,47,170,0,0,304,0,3,198,0,42,262,0,46,170,0,42,262,0,46,170,0,0,304,0,0,198,0,0,304,0,0,198,0,0,304,0,21,198,0,42,260,0,47,168,0,228,56,20,144,48,25
2017-06-21T23:59:59Z,200,313,109,88,311,199,103,83,35,43,0,0,0,0,0,0,0,312,0,199,1,308,1,197,0,0,0,0,0,0,0,0,11,301,1,10,194,19,45,268,0,35,172,0,46,267,0,51,169,0,45,268,0,35,172,0,45,268,0,50,170,0,45,268,0,50,170,0,45,268,0,50,170,0,0,313,0,3,200,0,43,270,0,48,171,0,43,270,0,48,171,0,0,313,0,0,200,0,0,313,0,0,200,0,0,313,0,21,200,0,43,268,0,48,169,0,234,59,20,145,50,25
2017-06-22T23:59:58Z,199,308,109,88,307,198,104,84,35,42,0,0,0,0,0,0,0,307,0,198,1,303,1,196,0,0,0,0,0,0,0,0,11,295,1,10,193,20,44,263,0,35,171,1,45,262,0,51,168,1,44,264,0,35,171,1,44,264,0,50,169,1,44,264,0,50,169,1,44,264,0,50,169,1,0,308,0,3,199,1,43,264,0,49,169,1,43,264,0,49,169,1,0,307,0,0,199,1,0,308,0,0,199,1,0,308,0,21,199,1,44,262,0,50,166,1,225,61,20,141,53,25
2017-06-23T23:59:59Z,200,310,110,88,308,199,105,84,37,43,0,0,0,0,0,0,0,309,0,199,1,304,1,197,0,0,0,0,0,0,0,0,11,297,0,10,195,18,45,263,0,35,172,0,45,263,0,50,170,0,45,264,0,35,172,0,45,264,0,50,170,0,45,264,0,50,170,0,45,264,0,50,170,0,0,309,0,3,200,0,43,265,0,48,171,0,43,265,0,48,171,0,0,308,0,0,200,0,0,309,0,0,200,0,0,310,0,21,200,0,44,263,0,49,168,0,226,62,20,141,53,25
2017-06-24T23:59:59Z,199,308,111,89,307,198,106,85,34,43,0,0,0,0,0,0,1,306,1,198,1,302,1,196,0,0,0,0,0,0,0,0,10,296,0,9,194,19,44,262,0,34,171,1,44,262,0,49,169,1,44,263,0,34,171,1,45,262,0,50,168,1,44,263,0,49,169,1,44,263,0,49,169,1,0,307,0,3,199,1,43,263,0,48,170,1,43,263,0,48,170,1,0,306,0,0,199,1,0,307,0,0,199,1,0,308,0,21,199,1,44,261,0,49,167,1,225,61,20,141,52,25
2017-06-25T23:59:59Z,198,307,110,88,306,197,104,83,34,43,0,0,0,0,0,0,2,304,1,196,1,301,1,195,0,0,0,0,0,0,0,0,10,295,0,9,193,19,44,262,0,34,170,1,44,262,0,49,168,1,44,262,0,34,170,1,44,262,0,49,168,1,44,262,0,49,168,1,44,262,0,49,168,1,0,306,0,3,198,1,43,263,0,48,169,1,43,263,0,48,169,1,0,306,0,0,198,1,0,306,0,0,198,1,0,307,0,21,198,1,44,260,0,49,166,1,228,59,20,142,50,25
2017-06-26T23:59:59Z,201,311,109,87,310,200,105,84,35,42,0,0,0,0,0,0,2,308,1,199,1,307,1,198,0,0,0,0,0,0,0,0,10,299,0,9,196,19,44,266,0,34,173,1,44,266,0,49,171,1,47,263,0,35,172,1,44,263,3,49,170,2,44,263,3,49,170,2,44,263,3,49,170,2,0,307,3,3,200,2,43,264,3,48,171,2,43,265,2,48,172,2,0,309,1,0,201,2,0,309,1,0,201,2,0,311,0,21,201,1,43,261,4,48,168,3,230,59,20,145,50,25
2017-06-27T23:59:59Z,201,312,110,88,311,200,104,84,38,45,0,0,0,0,0,0,0,311,0,200,1,306,1,198,0,0,0,0,0,0,0,0,10,299,1,9,195,20,44,267,0,34,173,1,45,266,0,50,170,1,44,267,0,34,173,1,44,267,0,49,171,1,44,267,0,49,171,1,44,267,0,49,171,1,0,311,0,3,201,1,43,268,0,48,172,1,43,268,0,48,172,1,0,311,0,0,201,1,0,311,0,0,201,1,0,312,0,21,201,1,43,266,0,48,170,1,230,60,20,143,51,25
2017-06-28T23:59:59Z,200,311,110,88,310,199,105,83,37,44,0,0,0,0,0,0,1,309,1,199,1,305,1,197,0,0,0,0,0,0,0,0,10,299,0,9,195,19,43,267,0,33,173,1,43,267,0,48,171,1,41,267,2,32,173,2,43,267,0,48,171,1,43,267,0,48,171,1,43,267,0,48,171,1,0,310,0,3,200,1,42,268,0,47,172,1,42,268,0,47,172,1,0,310,0,0,200,1,0,310,0,0,200,1,0,311,0,21,200,1,43,265,0,48,169,1,228,61,20,141,52,25
2017-06-29T23:59:57Z,202,314,109,87,313,201,104,83,31,41,0,0,0,0,0,0,3,310,2,200,1,310,1,200,0,0,0,0,0,0,0,0,10,301,1,9,196,20,44,268,1,34,173,2,44,268,1,49,171,2,44,268,1,34,173,2,44,268,1,49,171,2,44,268,1,49,171,2,44,268,1,49,171,2,0,312,1,3,201,2,41,271,1,47,173,2,41,271,1,47,173,2,0,312,1,0,201,2,0,312,1,0,201,2,0,314,0,21,202,1,41,270,0,47,172,1,233,59,20,145,51,25
2017-06-30T23:59:58Z,199,310,109,87,308,198,104,83,32,42,0,0,0,0,0,0,2,307,1,197,1,304,1,196,0,0,0,0,0,0,0,0,11,297,1,9,193,20,43,266,0,33,172,1,44,265,0,49,169,1,43,266,0,33,172,1,44,265,0,49,169,1,44,265,0,49,169,1,44,265,0,49,169,1,0,309,0,3,199,1,43,266,0,48,170,1,43,266,0,48,170,1,0,309,0,0,199,1,0,309,0,0,199,1,0,310,0,21,199,1,43,264,0,48,168,1,226,61,21,141,52,25
2017-07-01T23:59:59Z,199,310,108,86,309,198,104,83,36,44,0,0,0,0,0,0,5,304,3,195,1,306,1,197,0,0,0,0,0,0,0,0,11,297,1,9,193,20,45,264,0,34,171,1,46,263,0,50,168,1,45,264,0,34,171,1,46,263,0,50,168,1,46,263,0,50,168,1,46,263,0,50,168,1,0,309,0,3,199,1,44,265,0,48,170,1,44,265,0,48,170,1,0,309,0,0,199,1,0,309,0,0,199,1,0,310,0,21,199,1,44,263,0,48,168,1,228,59,21,142,50,26
2017-07-02T23:59:59Z,200,310,108,86,309,199,103,82,36,44,0,0,0,0,0,0,6,303,4,196,1,306,1,198,0,0,0,0,0,0,0,0,10,299,0,9,195,18,44,265,0,33,172,1,44,265,0,48,170,1,44,265,0,33,172,1,45,264,0,49,169,1,45,264,0,49,169,1,45,264,0,49,169,1,0,309,0,3,200,1,43,266,0,47,171,1,43,266,0,47,171,1,0,309,0,0,200,1,0,309,0,0,200,1,0,310,0,20,200,1,43,264,0,47,169,1,229,59,20,143,49,25
2017-07-03T23:59:59Z,195,305,106,84,304,194,102,81,39,44,0,0,0,0,0,0,3,301,2,193,1,299,1,192,0,0,0,0,0,0,0,0,10,294,0,9,190,18,44,260,0,33,167,1,44,260,0,48,165,1,44,260,0,33,167,1,44,260,0,48,165,1,44,260,0,48,165,1,44,260,0,48,165,1,0,304,0,3,195,1,43,261,0,47,166,1,43,261,0,47,166,1,0,304,0,0,195,1,0,304,0,0,195,1,0,305,0,20,195,1,43,259,0,47,164,1,224,59,20,139,49,25
2017-07-04T23:59:59Z,197,309,107,86,308,196,101,81,33,42,0,0,0,0,0,0,5,303,3,194,1,306,1,195,0,0,0,0,0,0,0,0,11,297,1,10,191,18,45,264,0,34,169,0,46,263,0,50,166,0,45,264,0,34,169,0,45,264,0,49,167,0,45,264,0,49,167,0,45,264,0,49,167,0,0,309,0,3,197,0,43,266,0,47,168,0,43,266,0,47,168,0,0,309,0,0,197,0,0,309,0,0,197,0,0,309,0,20,197,0,44,264,0,48,166,1,229,58,20,141,48,25
2017-07-05T23:59:59Z,200,312,110,89,311,199,105,85,34,44,0,0,0,0,0,0,2,309,1,198,1,309,1,198,0,0,0,0,0,0,0,0,12,299,1,11,193,19,47,265,0,36,171,0,48,264,0,52,167,0,47,265,0,36,171,0,48,264,0,52,167,0,48,264,0,52,167,0,48,264,0,52,167,0,0,312,0,3,200,0,45,267,0,49,169,0,45,267,0,49,169,0,0,312,0,0,200,0,0,312,0,0,200,0,0,312,0,21,200,0,47,264,0,51,166,0,229,61,20,141,51,26
2017-07-06T23:59:59Z,200,312,109,88,311,199,99,83,39,46,0,0,0,0,0,0,0,311,0,199,1,304,1,195,0,0,0,0,0,0,0,0,12,299,1,11,193,19,47,264,1,36,170,1,47,264,1,51,167,1,47,264,1,36,170,1,47,264,1,51,167,1,47,264,1,51,167,1,47,264,1,51,167,1,0,311,1,3,199,1,45,266,1,49,168,1,45,266,1,49,168,1,0,311,1,0,199,1,0,311,1,0,199,1,0,312,0,21,200,0,45,265,1,49,167,1,230,60,20,143,50,26
2017-07-07T23:59:59Z,202,317,108,88,316,201,103,84,35,46,0,0,0,0,0,0,3,313,2,200,1,312,1,199,0,0,0,0,0,0,0,0,12,305,0,11,196,19,47,270,0,36,173,0,47,270,0,52,170,0,47,270,0,36,173,0,47,270,0,52,170,0,47,270,0,52,170,0,47,270,0,52,170,0,0,317,0,3,202,0,45,272,0,50,171,0,45,272,0,50,171,0,0,317,0,0,202,0,0,317,0,0,202,0,0,317,0,22,202,0,46,270,0,51,169,0,235,60,20,145,49,27
2017-07-08T23:59:59Z,200,315,106,86,313,199,101,82,35,45,0,0,0,0,0,0,2,312,1,198,1,312,1,198,0,0,0,0,0,0,0,0,12,302,0,12,194,19,46,269,0,36,172,0,46,269,0,51,168,0,46,269,0,36,172,0,46,269,0,51,168,0,46,269,0,51,168,0,46,269,0,51,168,0,0,315,0,3,200,0,44,271,0,49,169,0,44,271,0,49,169,0,0,315,0,0,200,0,0,315,0,0,200,0,0,315,0,22,200,0,44,269,0,49,168,0,234,59,20,144,48,27
2017-07-09T23:59:59Z,200,315,107,86,309,198,102,82,32,43,0,0,0,0,0,0,3,311,2,198,1,310,2,197,0,0,0,0,0,0,0,0,12,302,0,12,194,19,48,267,0,37,171,1,48,267,0,52,167,0,48,267,0,37,171,1,49,266,0,53,166,0,48,267,0,52,167,0,48,267,0,52,167,0,0,315,0,3,200,0,46,269,0,50,168,0,46,269,0,50,168,0,0,315,0,0,200,0,0,315,0,0,200,0,0,315,0,22,200,0,46,267,0,50,167,1,234,59,20,144,48,27
2017-07-10T23:59:59Z,202,316,107,86,315,201,102,82,31,42,0,0,0,0,0,0,3,312,2,200,1,313,2,200,0,0,0,0,0,0,0,0,13,303,0,12,195,19,48,268,0,37,172,1,48,268,0,52,169,1,48,268,0,37,172,1,49,267,0,53,168,1,49,267,0,53,168,1,48,268,0,52,169,1,1,315,0,4,201,1,46,270,0,50,170,1,46,270,0,50,170,1,0,316,0,0,202,1,0,316,0,0,202,1,0,316,0,21,202,1,44,270,0,49,170,1,234,60,20,145,49,26
2017-07-11T23:59:59Z,199,310,106,85,309,198,101,81,36,43,0,0,0,0,0,0,2,307,1,197,1,308,1,197,0,0,0,0,0,0,0,0,12,297,1,11,192,19,47,263,0,36,170,0,48,262,0,52,166,0,47,263,0,36,170,0,47,263,0,51,167,0,47,263,0,51,167,0,47,263,0,51,167,0,0,310,0,3,199,0,46,264,0,50,167,0,46,264,0,50,167,0,0,310,0,0,199,0,0,310,0,0,199,0,0,310,0,21,199,0,43,265,0,48,168,0,227,61,20,142,51,26
2017-07-12T23:59:59Z,201,314,108,86,313,200,103,82,36,45,0,0,0,0,0,0,2,311,1,199,1,310,1,198,0,0,0,0,0,0,0,0,13,301,0,12,194,19,46,268,0,36,172,0,46,268,0,52,169,0,46,268,0,36,172,0,46,268,0,52,169,0,46,268,0,52,169,0,46,268,0,52,169,0,1,313,0,4,200,0,43,271,0,49,171,0,43,271,0,49,171,0,0,314,0,0,201,0,0,314,0,0,201,0,0,314,0,22,201,0,44,268,0,50,169,0,234,59,21,146,48,27
2017-07-13T23:59:59Z,198,307,103,84,306,197,98,80,32,42,0,0,0,0,0,0,0,306,0,197,1,301,1,194,0,0,0,0,0,0,0,0,12,295,0,11,192,20,47,260,0,36,169,0,47,260,0,53,166,0,47,260,0,36,169,0,47,260,0,53,166,0,47,260,0,53,166,0,47,260,0,53,166,0,0,307,0,3,198,0,45,262,0,51,167,0,45,262,0,51,167,0,0,307,0,0,198,0,0,307,0,0,198,0,0,307,0,23,198,0,45,260,0,51,166,0,228,57,20,143,46,27
2017-07-14T23:59:59Z,197,301,102,84,296,195,97,80,32,43,0,0,0,0,0,0,0,300,0,196,1,297,1,194,0,0,0,0,0,0,0,0,12,289,0,11,191,21,44,257,0,34,170,0,44,257,0,52,167,0,44,257,0,34,170,0,44,257,0,52,167,0,44,257,0,52,167,0,44,257,0,52,167,0,0,301,0,3,197,0,42,259,0,50,168,0,42,259,0,50,168,0,0,301,0,0,197,0,0,301,0,0,197,0,0,301,0,24,197,0,43,257,0,51,166,0,223,58,20,142,47,28
2017-07-15T23:59:59Z,199,307,103,85,306,198,97,80,38,47,0,0,0,0,0,0,2,304,1,197,1,303,1,196,0,0,0,0,0,0,0,0,12,295,0,11,193,20,46,261,0,35,171,0,46,261,0,52,168,0,46,261,0,35,171,0,47,260,0,53,167,0,46,261,0,52,168,0,46,261,0,52,168,0,0,307,0,3,199,0,44,263,0,50,169,0,44,263,0,50,169,0,0,307,0,0,199,0,0,307,0,0,199,0,0,307,0,23,199,0,44,262,0,50,168,0,229,56,20,145,45,27
2017-07-16T23:59:59Z,198,308,100,82,307,197,94,77,33,44,0,0,0,0,0,0,2,305,1,196,1,305,1,196,0,0,0,0,0,0,0,0,12,296,0,11,192,19,45,263,0,35,171,0,45,263,0,51,168,0,45,263,0,35,171,0,46,262,0,52,167,0,46,262,0,52,167,0,46,262,0,52,167,0,0,308,0,4,198,0,44,264,0,50,168,0,44,264,0,50,168,0,0,308,0,0,198,0,0,308,0,0,198,0,0,308,0,23,198,0,43,264,0,49,168,0,233,54,19,147,44,26
2017-07-17T23:59:59Z,203,317,104,85,316,202,97,79,35,45,0,0,0,0,0,0,6,310,3,199,1,313,1,200,0,0,0,0,0,0,0,0,12,304,1,11,196,21,45,272,0,34,176,0,46,271,0,52,172,0,45,272,0,34,176,0,45,272,0,51,173,0,45,272,0,51,173,0,45,272,0,51,173,0,0,317,0,3,203,0,43,274,0,49,174,0,43,274,0,49,174,0,0,317,0,0,203,0,0,317,0,0,203,0,0,317,0,23,203,0,44,271,0,50,172,0,235,58,22,147,47,28
2017-07-18T23:59:59Z,204,321,108,87,318,202,101,81,36,46,0,0,0,0,0,0,5,315,3,201,2,318,2,202,0,0,0,0,0,0,0,0,12,309,0,11,198,20,45,276,0,34,177,0,45,276,0,51,174,0,45,276,0,34,177,0,46,275,0,52,173,0,46,275,0,52,173,0,46,275,0,52,173,0,0,321,0,3,204,0,43,278,0,49,175,0,43,278,0,49,175,0,0,321,0,0,204,0,0,321,0,0,204,0,0,321,0,23,204,0,43,276,0,49,174,0,236,60,23,146,49,29
2017-07-19T23:59:59Z,201,315,106,86,314,200,100,81,38,45,0,0,0,0,0,0,0,314,0,200,1,313,1,199,0,0,0,0,0,0,0,0,12,302,1,11,194,18,44,271,0,33,174,0,45,270,0,49,171,0,44,271,0,33,174,0,44,271,0,48,172,0,44,271,0,48,172,0,44,271,0,48,172,0,0,315,0,3,201,0,42,273,0,46,173,0,42,273,0,46,173,0,0,315,0,0,201,0,0,315,0,0,201,0,0,315,0,20,201,0,42,272,0,46,172,0,235,59,21,146,48,26
2017-07-20T23:59:59Z,202,317,106,86,315,201,99,80,33,41,0,0,0,0,0,0,0,316,0,201,1,313,1,199,0,0,0,0,0,0,0,0,12,304,1,11,195,18,44,273,0,33,175,0,45,272,0,49,172,0,44,273,0,33,175,0,45,272,0,49,172,0,45,272,0,49,172,0,45,272,0,49,172,0,0,317,0,3,202,0,42,275,0,46,174,0,42,275,0,46,174,0,0,317,0,0,202,0,0,317,0,0,202,0,0,317,0,20,202,0,40,276,0,45,174,0,237,59,21,147,48,26
2017-07-21T23:59:59Z,201,312,107,87,311,200,101,82,40,48,0,0,0,0,0,0,0,311,0,200,1,310,1,199,0,0,0,0,0,0,0,0,12,298,2,10,193,19,44,268,0,32,174,0,46,266,0,49,170,0,44,268,0,32,174,0,44,268,0,47,172,0,44,268,0,47,172,0,44,268,0,47,172,0,0,312,0,2,201,0,42,270,0,45,173,0,42,270,0,45,173,0,0,312,0,0,201,0,0,312,0,0,201,0,0,312,0,19,201,0,42,269,0,45,172,0,228,61,21,143,50,26
2017-07-22T23:59:59Z,201,309,107,88,308,200,101,83,38,47,0,0,0,0,0,0,1,307,1,200,1,305,1,198,0,0,0,0,0,0,0,0,11,298,0,10,195,17,44,265,0,33,173,1,44,265,0,48,171,0,44,265,0,33,173,0,44,265,0,48,171,0,44,265,0,48,171,0,44,265,0,48,171,0,0,309,0,2,201,1,43,266,0,46,172,1,43,266,0,46,172,1,0,309,0,0,201,1,0,309,0,0,201,1,0,309,0,19,201,1,44,264,0,47,170,1,225,61,21,143,51,26
2017-07-23T23:59:59Z,200,307,106,86,305,198,99,80,35,43,0,0,0,0,0,0,0,306,0,199,1,303,1,197,0,0,0,0,0,0,0,0,11,296,0,10,194,17,43,264,0,33,172,0,43,264,0,48,170,0,43,264,0,33,172,0,43,264,0,48,170,0,43,264,0,48,170,0,43,264,0,48,170,0,0,307,0,2,200,1,43,264,0,47,170,1,43,264,0,47,170,1,0,307,0,0,200,1,0,307,0,0,200,1,0,307,0,19,200,1,44,262,0,47,169,1,222,62,21,141,51,26
2017-07-24T23:59:59Z,213,331,118,96,329,212,111,90,50,54,0,0,0,0,0,0,2,328,1,211,1,327,1,210,0,0,0,0,0,0,0,0,13,308,10,11,198,25,46,285,0,35,184,0,57,274,0,59,173,0,46,285,0,35,184,0,57,274,0,59,173,0,57,274,0,59,173,0,57,274,0,59,173,0,0,331,0,3,213,0,50,281,0,53,178,0,54,277,0,56,175,0,0,331,0,0,213,0,0,331,0,0,213,0,0,331,0,20,213,0,52,278,0,55,175,0,234,70,25,146,59,28
2017-07-25T23:59:59Z,206,324,107,88,322,205,99,81,41,47,0,0,0,0,0,0,3,320,2,204,1,322,1,204,0,0,0,0,0,0,0,0,12,312,0,12,200,17,46,278,0,36,177,0,46,278,0,51,175,0,46,278,0,36,177,0,46,278,0,51,175,0,46,278,0,51,175,0,46,278,0,51,175,0,0,324,0,4,206,0,44,280,0,49,176,0,44,280,0,49,176,0,0,324,0,0,206,0,0,324,0,0,206,0,0,324,0,21,206,0,44,279,0,49,175,0,234,64,24,146,53,27
2017-07-26T23:59:59Z,206,325,108,89,323,204,101,84,37,45,0,0,0,0,0,0,0,324,0,205,1,323,1,204,0,0,0,0,0,0,0,0,12,310,3,11,197,20,46,279,0,36,177,0,49,276,0,54,172,0,46,279,0,36,177,0,47,278,0,52,174,0,47,278,0,52,174,0,47,278,0,52,174,0,0,325,0,4,206,0,46,279,0,51,174,0,46,279,0,51,174,0,0,325,0,0,206,0,0,325,0,0,206,0,0,325,0,21,206,0,45,279,0,50,174,0,235,64,24,145,53,28
2017-07-27T23:59:59Z,205,323,109,89,322,204,101,83,34,44,0,0,0,0,0,0,0,322,0,204,1,319,1,202,0,0,0,0,0,0,0,0,13,310,0,12,198,17,46,277,0,36,176,0,47,276,0,52,173,0,46,277,0,36,176,0,47,276,0,52,173,0,47,276,0,52,173,0,47,276,0,52,173,0,0,323,0,4,205,0,45,278,0,50,174,0,45,278,0,50,174,0,0,323,0,0,205,0,0,323,0,0,205,0,0,323,0,21,205,0,47,275,0,52,171,0,234,63,24,144,52,28
2017-07-28T23:59:59Z,205,324,109,89,323,204,101,83,35,44,0,0,0,0,0,0,3,320,2,203,1,320,1,202,0,0,0,0,0,0,0,0,13,310,1,12,197,18,47,277,0,37,175,0,48,276,0,53,172,0,47,277,0,37,175,0,47,277,0,52,173,0,47,277,0,52,173,0,47,277,0,52,173,0,1,323,0,5,204,0,46,278,0,51,173,0,46,277,1,51,173,1,0,324,0,0,205,0,0,324,0,0,205,0,0,324,0,21,205,0,44,279,0,50,173,0,237,61,24,146,50,28
2017-07-29T23:59:59Z,201,318,108,89,316,200,100,83,36,46,0,0,0,0,0,0,2,315,1,199,1,316,1,199,0,0,0,0,0,0,0,0,12,305,1,11,194,19,44,274,0,35,174,0,46,272,0,52,169,0,44,274,0,35,174,0,44,274,0,50,171,0,44,274,0,50,171,0,44,274,0,50,171,0,0,318,0,4,201,0,42,276,0,48,172,0,42,276,0,48,172,0,0,318,0,0,201,0,0,318,0,0,201,0,0,318,0,22,201,0,42,275,0,48,171,0,232,60,24,143,50,29
2017-07-30T23:59:59Z,201,317,107,88,316,200,99,82,33,43,0,0,0,0,0,0,3,313,2,199,1,311,1,197,0,0,0,0,0,0,0,0,12,305,0,11,195,18,44,273,0,35,174,0,44,273,0,50,171,0,44,273,0,35,174,0,45,272,0,51,170,0,45,272,0,51,170,0,45,272,0,51,170,0,0,317,0,4,201,0,43,274,0,49,171,0,43,274,0,49,171,0,0,317,0,0,201,0,0,317,0,0,201,0,0,317,0,22,201,0,43,273,0,49,170,0,235,58,22,144,48,28
2017-07-31T23:59:59Z,201,316,106,87,315,200,99,82,35,45,0,0,0,0,0,0,2,313,1,199,1,312,1,198,0,0,0,0,0,0,0,0,12,303,1,11,194,20,42,274,0,33,176,0,43,273,0,50,172,0,42,274,0,33,176,0,42,274,0,49,173,0,42,274,0,49,173,0,42,274,0,49,173,0,0,316,0,4,201,0,41,275,0,48,173,0,41,275,0,48,173,0,0,316,0,0,201,0,0,316,0,0,201,0,0,316,0,23,201,0,41,274,0,48,172,0,232,60,22,143,50,29
2017-08-01T23:59:59Z,203,318,108,89,316,202,100,83,37,46,0,0,0,0,0,0,0,317,0,202,1,316,1,201,0,0,0,0,0,0,0,0,13,303,1,12,195,21,41,276,0,33,179,0,43,274,0,51,173,0,41,276,0,33,179,0,43,274,0,51,173,0,43,274,0,51,173,0,43,274,0,51,173,0,0,317,0,4,203,0,40,277,0,48,175,0,40,278,0,48,175,0,0,318,0,0,203,0,0,318,0,0,203,0,0,318,0,24,203,0,43,274,0,50,172,0,232,62,22,144,52,30
2017-08-02T23:59:59Z,200,316,106,86,315,199,97,80,33,43,0,0,0,0,0,0,1,314,1,199,1,310,1,196,0,0,0,0,0,0,0,0,12,304,0,11,194,19,45,271,0,35,173,0,45,271,0,51,170,0,45,270,0,35,173,0,45,270,0,51,170,0,45,270,0,51,170,0,45,270,0,51,170,0,0,315,0,4,200,0,44,271,0,50,170,0,44,272,0,50,170,0,0,316,0,0,200,0,0,316,0,0,200,0,0,316,0,23,200,0,44,271,0,50,169,0,232,60,22,143,49,29
2017-08-03T23:59:59Z,202,320,108,86,319,201,102,82,36,44,0,0,0,0,0,0,2,317,1,200,1,318,1,200,0,0,0,0,0,0,0,0,12,308,0,11,196,18,43,277,0,34,175,0,42,277,0,49,173,0,42,277,0,33,175,0,42,277,0,49,173,0,42,276,0,49,173,0,42,276,0,49,173,0,0,319,0,4,202,0,41,278,0,48,173,0,41,278,0,48,173,0,0,320,0,0,202,0,0,320,0,0,202,0,0,320,0,22,202,0,42,277,0,49,172,0,233,61,24,143,50,29
2017-08-04T23:59:59Z,203,320,109,87,319,202,102,82,41,48,0,0,0,0,0,0,4,315,2,200,1,316,1,200,0,0,0,0,0,0,0,0,11,308,1,11,196,19,44,276,0,35,175,0,44,275,0,51,172,0,42,277,0,33,176,0,43,276,0,50,173,0,43,276,0,50,173,0,43,276,0,50,173,0,1,319,0,5,202,0,42,278,0,49,174,0,41,278,0,48,174,0,0,320,0,0,203,0,0,320,0,0,203,0,0,320,0,22,203,0,43,276,0,50,172,0,232,62,24,144,51,29
2017-08-05T23:59:59Z,201,317,109,87,315,199,102,82,34,43,0,0,0,0,0,0,4,312,2,198,1,314,1,198,0,0,0,0,0,0,0,0,10,307,0,10,196,18,41,276,0,33,175,0,41,276,0,49,173,0,40,276,0,32,175,0,40,276,0,48,173,0,40,276,0,48,173,0,40,276,0,48,173,0,0,317,0,4,201,0,40,277,0,48,173,0,39,277,0,47,173,0,0,317,0,0,201,0,0,317,0,0,201,0,0,317,0,22,201,0,42,274,0,49,171,0,229,62,24,141,51,29
2017-08-06T23:59:59Z,201,314,111,89,313,200,104,84,35,44,0,0,0,0,0,0,2,311,1,199,1,311,1,198,0,0,0,0,0,0,0,0,10,304,0,10,196,18,44,270,0,35,173,0,44,270,0,51,171,0,43,270,0,34,173,0,43,270,0,50,171,0,44,269,0,51,170,0,44,269,0,51,170,0,0,314,0,4,201,0,43,271,0,50,171,0,42,271,0,49,171,0,0,314,0,0,201,0,0,314,0,0,201,0,0,314,0,22,201,0,43,270,0,50,170,0,227,61,24,142,50,29
2017-08-07T23:59:59Z,203,319,111,89,318,202,104,84,33,43,0,0,0,0,0,0,2,316,1,201,1,312,1,198,0,0,0,0,0,0,0,0,10,308,1,10,197,19,44,275,0,35,175,0,45,274,0,52,172,0,44,274,0,35,174,0,45,273,0,52,171,0,44,274,0,51,172,0,44,274,0,51,172,0,1,318,0,5,202,0,42,277,0,49,174,0,42,277,0,49,174,0,0,319,0,0,203,0,0,319,0,0,203,0,0,319,0,22,203,0,43,275,0,50,172,0,232,61,24,144,50,29
2017-08-08T23:59:59Z,203,321,113,90,318,201,104,83,35,43,0,0,0,0,0,0,2,318,1,201,1,318,1,200,0,0,0,0,0,0,0,0,10,311,0,10,198,18,45,276,0,35,175,0,45,276,0,51,173,0,45,275,0,35,174,0,44,276,0,50,173,0,45,275,0,51,172,0,45,275,0,51,172,0,0,321,0,4,203,0,43,278,0,49,174,0,43,278,0,49,174,0,0,321,0,0,203,0,0,321,0,0,203,0,0,321,0,22,203,0,44,276,0,50,172,0,235,62,24,144,52,29
2017-08-09T23:59:58Z,201,316,108,88,315,200,99,81,36,44,0,0,0,0,0,0,2,313,1,199,1,313,1,198,0,0,0,0,0,0,0,0,10,306,0,9,196,19,43,273,0,33,174,0,43,273,0,51,172,0,42,273,0,32,174,0,43,272,0,52,171,0,43,272,0,52,171,0,43,272,0,52,171,0,0,316,0,3,201,0,43,273,0,51,172,0,43,273,0,51,172,0,0,316,0,0,201,0,0,316,0,0,201,0,0,316,0,23,201,0,43,272,0,50,171,0,232,61,21,142,51,28
2017-08-10T23:59:59Z,205,323,109,89,321,204,99,81,36,46,0,0,0,0,0,0,4,318,2,202,1,320,1,202,0,0,0,0,0,0,0,0,10,312,1,9,199,19,46,277,0,35,176,0,47,276,0,53,173,0,45,277,0,34,176,0,46,276,0,53,173,0,46,276,0,53,173,0,46,276,0,53,173,0,0,323,0,3,205,0,46,277,0,53,173,0,47,276,0,54,172,0,0,323,0,0,205,0,0,323,0,0,205,0,0,323,0,22,205,0,45,277,0,51,173,0,241,59,21,148,49,27
2017-08-11T23:59:59Z,203,322,107,87,320,202,97,79,38,44,0,0,0,0,0,0,4,317,2,200,1,314,1,197,0,0,0,0,0,0,0,0,10,312,0,9,198,18,44,278,0,34,175,0,44,278,0,51,173,0,43,278,0,33,175,0,43,278,0,51,173,0,43,278,0,51,173,0,43,278,0,51,173,0,0,322,0,3,203,0,42,280,0,50,174,0,42,280,0,50,174,0,0,322,0,0,203,0,0,322,0,0,203,0,0,322,0,22,203,0,41,279,1,48,173,1,238,61,21,145,52,27
2017-08-12T23:59:59Z,200,317,106,86,315,199,98,80,34,43,0,0,0,0,0,0,4,312,2,197,1,312,1,196,0,0,0,0,0,0,0,0,10,307,0,9,195,18,45,272,0,34,172,0,45,272,0,51,170,0,44,272,0,33,172,0,44,272,0,51,170,0,44,272,0,51,170,0,44,272,0,51,170,0,0,317,0,3,200,0,43,274,0,50,171,0,43,274,0,50,171,0,0,317,0,0,200,0,0,317,0,0,200,0,0,317,0,22,200,0,43,273,0,49,170,0,234,60,21,143,50,27
2017-08-13T23:59:59Z,203,321,109,89,320,202,100,82,36,46,0,0,0,0,0,0,2,318,1,201,1,316,1,199,0,0,0,0,0,0,0,0,11,309,1,10,196,19,47,274,0,36,174,0,49,272,0,55,170,0,47,273,0,36,173,0,47,273,0,54,171,0,47,273,0,54,171,0,47,273,0,54,171,0,1,320,0,4,202,0,47,274,0,54,171,0,47,274,0,54,171,0,0,321,0,0,203,0,0,321,0,0,203,0,0,321,0,22,203,0,47,273,0,53,170,0,236,62,21,144,52,27
2017-08-14T23:59:59Z,204,320,112,91,319,203,103,85,39,47,0,0,0,0,0,0,3,316,2,202,1,317,1,201,0,0,0,0,0,0,0,0,10,310,0,10,199,19,48,272,0,38,174,0,48,272,0,55,171,0,47,272,0,37,174,0,48,271,0,56,170,0,47,272,0,55,171,0,47,272,0,55,171,0,0,320,0,4,204,0,47,273,0,55,171,0,47,273,0,54,171,1,0,320,0,0,204,0,0,320,0,0,204,0,0,320,0,24,204,0,49,270,0,55,169,0,232,63,23,144,53,29
2017-08-15T23:59:59Z,204,317,113,92,316,203,103,84,40,48,0,0,0,0,0,0,3,313,2,202,1,314,1,201,0,0,0,0,0,0,0,0,10,307,0,10,199,19,50,267,0,40,173,0,50,267,0,57,170,0,49,267,0,39,173,0,49,267,0,57,170,0,49,267,0,57,170,0,49,267,0,57,170,0,0,317,0,4,204,0,48,269,0,56,171,0,48,269,0,55,171,1,0,317,0,0,204,0,0,317,0,0,204,0,0,317,0,24,204,0,49,267,0,55,169,0,229,63,23,144,53,29
2017-08-16T23:59:57Z,205,319,114,94,318,204,105,87,41,50,0,0,0,0,0,0,6,312,3,201,1,316,1,202,0,0,0,0,0,0,0,0,10,309,0,10,200,22,51,268,0,40,173,1,50,269,0,58,171,1,49,269,0,39,174,1,49,269,0,57,171,1,49,269,0,57,171,1,49,269,0,57,171,1,0,319,0,4,205,1,49,270,0,57,171,1,49,270,0,57,171,1,0,319,0,0,205,1,0,319,0,0,205,1,0,319,0,25,205,1,49,269,0,56,170,1,231,62,24,145,52,31